World > North America > United States > New York

Hourly Newtonville, NY Regional Weather

Feedback E-mail the Weather

Quick WX

Newtonville, NY Weather Maps

°F °C°F °C
Newtonville Weather Map
UTC Time: 6/30/2022, 21:48
Your Time:

Newtonville, NY Regional Weather

Expires:202206302200;;460087
ASUS41 KBTV 302130
RWRBTV
VERMONT REGIONAL WEATHER ROUNDUP
NATIONAL WEATHER SERVICE BURLINGTON VT
500 PM EDT THU JUN 30 2022

NOTE: "FAIR" INDICATES FEW OR NO CLOUDS BELOW 12,000 FEET WITH NO 
SIGNIFICANT WEATHER AND/OR OBSTRUCTIONS TO VISIBILITY.

* THESE REPORTS ARE NOT UNDER NWS QUALITY CONTROL AND/OR DO NOT
  REPORT WEATHER SUCH AS PRECIPITATION AND FOG.


NYZ007-026>031-035-052-083-087-302200-
_____NORTHERN NEW YORK_
  
CITY           SKY/WX    TMP DP  RH WIND       PRES   REMARKS
PLATTSBURGH    MOSUNNY   71  53  52 CALM      30.11S                  
SARANAC LAKE   MOSUNNY   74  51  44 VRB6      30.12S                  
MASSENA        MOSUNNY   75  57  53 W5        30.09F                  
OGDENSBURG*    FAIR      75  57  53 VRB6      30.06S                  
POTSDAM*       MOSUNNY   73  55  53 SW8       30.09S                  
WATERTOWN      MOSUNNY   77  52  41 W8        30.09F                  
FT DRUM        MOSUNNY   79  46  30 W13       30.10S                  
ALBANY         MOSUNNY   83  53  35 W5        30.10F                  
GLENS FALLS    SUNNY     78  56  46 SE9       30.10F                  

$$

SKY/WX - Weather  TMP - Temperature  DP - Dew Point  RH - Humidity
WIND - Wind Direction/Speed PRES - Barometric Pressure VSB - Visibility
WCI - Wind Chill Index E13G22 Wind - East Wind 13 mph/Gusts of 22 mph

Trending Headlines

Newtonville Radar Loop



Newtonville Quick Facts


National Two Day Weather Forecast


E-mail the Newtonville Weather Forecast

Voice your opinion or tell us about page issues...